Showing default

KUIPER-00272, 68588

Orbit data source: Space-Track

KUIPER-00272, 68588 is a payload satellite owned by Kuiper Systems (US) in LEO that was launched on Sat, 04 Apr 2026 UTC via an ATLAS V 551 launch vehicle from the Air Force Eastern Test Range (AFETR). Payload-class satellites include a variety of spacecraft equipped with specific instruments for various scientific and technological missions. These include communications satellites like Starlink; space stations such as the ISS; scientific satellites like the Hubble; Earth observation satellites from companies like Planet Labs, Umbra, and HawkEye 360; GPS; miniature CubeSats for education and research; and military/defense satellites.

Loading next visibility...
Identifier
68588, 2026-072R
Orbit
LEO
Country
Flag of USUS
Related business
Manufacturer
Kuiper Systems
Mission
Operational spacecraft
Bus & Motor
KUIPER, Unknown motor
Mass
~490 kg wet, ~490 kg dry
Launch date (UTC)
2026-04-04 (2 months ago)
Launch vehicle
ATLAS V 551
Launch site
Air Force Eastern Test Range (AFETR)
Object type
Payload
Rocket body
Debris
Shape & HBR
Unknown shape, 3.4 m
Radar Cross Section
Large (>1 m²)

Expand to show TLE details & history
Last TLE update: 21 hours ago

TLE from 21 hours ago
0 KUIPER-00272
1 68588U 26072R   26149.75803613  .00006747  00000-0  91211-3 0  9998
2 68588  51.8995 274.6384 0000644  82.6218 277.4818 14.79983538  8427
Epoch: 2026-05-29T18:11Z
TLE epoch observation values (Epoch: 2026-05-29T18:11:34.321Z)
Latitude
0.00001°
Longitude
114.46158°
Altitude
630.064 km
Speed
7.545 km/s
True Right ascension
18h 18m 33s
True Declination
0° 00' 00"
Sunlit
Object was in full shadow at epoch
Visualization orbit readout
Latitude
Unknown
Longitude
Unknown
Altitude
Unknown
Speed
Unknown
Apparent Right ascension
Unknown
Apparent Declination
Unknown
Sunlit
N/A
Visualization observer readout
Local Sidereal Time
00:54:41
Azimuth
Unknown
Elevation
Unknown
Doppler factor
Unknown
Orbital elements
Apogee altitude
630.279 km
Perigee altitude
629.376 km
Semi-major axis
7,007.964 km
Eccentricity
0.00006
Inclination
51.8995°
RAAN
274.6384°
Arg. of periapsis
82.6218°
True anomaly
277.47448°
Mean anomaly
277.4818°
Eccentric anomaly
277.47814°
Mean motion
3.6996 °/min
Orbital period
97.31 mins
BSTAR
0.00091211
Loading maneuver chart data...
Computing Atmospheric mass density...
Loading historical data...
Loading historical data...
Loading historical data...
Loading historical data...
Loading historical data...
Loading historical data...
Loading historical data...

Documentation

Showing up to 5 results
|